[[{"header":{"parameterUnit":"m.s-1","parameterCategory":1,"la1":30.2991,"la2":30.254,"lo1":-89.0895,"lo2":-89.0444,"dy":0.0017,"dx":0.0017,"nx":28,"ny":28,"refTime":"2025-12-29T09:00:00:Z","depth":0,"parameterNumber":2,"parameterNumberName":"U-component_of_WINDS"},"data":[0,0,0,0,0,0,0,0,0,0,0,0,0,0,0,0,0,0,0,0,0,0,0,0,0,0,0,0,0,0,0,0,0,0,0,0,0,0,0,0,0,0,0,0,0,0,0,0,0,0,0,0,0,0,0,0,0,0,1.3284,1.3284,0,1.3244,1.3243,1.3243,1.3228,1.3229,1.3229,1.3229,1.3185,1.3183,1.3182,0,0,0,0,0,0,0,0,0,0,0,0,0,1.3346,1.3345,1.3284,1.3283,1.3283,1.3244,1.3243,1.3243,1.3228,1.3229,1.3229,1.3229,1.3185,1.3183,1.3182,0,0,0,0,0,0,0,0,0,0,0,0,0,1.3314,1.3345,1.3284,1.3271,1.327,1.3244,1.3243,1.3243,1.3228,1.3229,1.3229,1.3229,1.3186,1.3184,1.3182,1.3165,0,0,1.3176,1.3175,0,0,0,0,0,0,0,0,1.3315,1.3311,1.3274,1.3272,1.327,1.3241,1.3249,1.3216,1.3228,1.3244,1.3229,1.3229,1.3203,1.32,1.3192,1.3163,1.3161,1.3175,1.3174,1.3173,1.3173,0,0,0,0,0,0,0,1.3318,1.3313,1.3268,1.3273,1.3271,1.3267,1.3262,1.3243,1.3223,1.3243,1.3241,1.3237,1.3202,1.3194,1.319,1.316,1.3176,1.3174,1.3173,1.3172,1.3116,1.3116,0,0,0,0,0,0,1.3323,1.3315,1.3269,1.3267,1.3294,1.3265,1.326,1.325,1.3223,1.3219,1.3237,1.3237,1.3197,1.3193,1.3189,1.3168,1.3173,1.3172,1.317,1.3117,1.3116,1.3116,0,0,0,0,0,0,1.3324,1.3319,1.3271,1.3291,1.3284,1.3264,1.3253,1.3249,1.3241,1.3219,1.3215,1.3232,1.3197,1.3192,1.3171,1.3166,1.3171,1.3169,1.3117,1.3117,1.3116,1.3125,0,0,0,0,0,0,1.3326,1.3319,1.3313,1.3291,1.3283,1.3255,1.3252,1.3248,1.3238,1.3237,1.3213,1.3209,1.3197,1.3174,1.3169,1.3163,1.3167,1.3117,1.3117,1.3116,1.3125,1.3125,1.3125,0,0,0,0,0,1.3328,1.3316,1.3313,1.3307,1.3275,1.3254,1.325,1.3237,1.3237,1.3231,1.3217,1.321,1.3168,1.3172,1.3167,1.316,1.3118,1.3117,1.3116,1.3125,1.3125,1.3125,0,0,0,0,0,0,1.3337,1.3313,1.3309,1.329,1.3275,1.3252,1.3243,1.3237,1.322,1.322,1.3204,1.3198,1.3179,1.3168,1.3174,1.3142,1.3142,1.314,1.3151,1.315,1.315,1.3153,1.3166,0,0,0,0,0,1.3338,1.3323,1.3303,1.3288,1.328,1.3263,1.3254,1.3245,1.3228,1.3221,1.3205,1.3188,1.3171,1.316,1.3143,1.3124,1.3118,1.3116,1.3116,1.3116,1.3114,1.3103,1.3102,1.3114,1.3114,1.3114,0,0,1.3337,1.3322,1.3314,1.3289,1.3276,1.3261,1.3258,1.3242,1.3231,1.3218,1.3199,1.3187,1.3167,1.3147,1.3137,1.3136,1.311,1.3115,1.3115,1.3114,1.3103,1.3101,1.31,1.3114,1.3114,1.3114,0,0,1.3328,1.3316,1.3302,1.329,1.3271,1.326,1.3257,1.3235,1.3227,1.3208,1.3198,1.3184,1.3155,1.3141,1.313,1.3118,1.3111,1.3113,1.3112,1.3101,1.31,1.3099,1.3095,1.3093,1.3112,1.3112,1.3112,0,1.333,1.3308,1.3296,1.3281,1.327,1.326,1.3246,1.3234,1.321,1.3203,1.3202,1.3166,1.3152,1.3129,1.3126,1.3118,1.3113,1.3115,1.3102,1.3101,1.31,1.3095,1.3093,1.3112,1.3112,1.3112,1.3112,0,1.331,1.3295,1.3287,1.3265,1.3253,1.3239,1.3224,1.3214,1.3207,1.3196,1.3176,1.3158,1.3138,1.3132,1.3124,1.3108,1.3108,1.3105,1.3104,1.3099,1.3094,1.3093,1.3113,1.3112,1.3112,1.3112,0,0,1.3305,1.3278,1.3275,1.3266,1.3245,1.3232,1.3217,1.3199,1.319,1.3174,1.3161,1.3137,1.3135,1.3123,1.3113,1.3104,1.3096,1.3102,1.3101,1.3101,1.3076,1.3078,1.3077,1.3091,1.3091,1.3091,1.3078,0,1.3293,1.3267,1.3256,1.3235,1.3221,1.3212,1.3199,1.3184,1.3173,1.3159,1.3147,1.3131,1.3129,1.3122,1.3112,1.3099,1.309,1.3099,1.3078,1.3077,1.3083,1.3074,1.3076,1.3065,1.3076,1.3076,1.3076,0,1.3276,1.3261,1.3239,1.322,1.3214,1.3202,1.3185,1.3172,1.3155,1.3148,1.3135,1.3127,1.311,1.3112,1.3089,1.3095,1.3086,1.3078,1.3077,1.3074,1.3076,1.307,1.3061,1.3059,1.3073,1.3073,1.3073,0,1.3274,1.3249,1.3232,1.3224,1.3202,1.3194,1.3184,1.3168,1.3158,1.3142,1.3135,1.3118,1.3108,1.3094,1.3081,1.3083,1.3059,1.306,1.3053,1.3053,1.3047,1.3047,1.3036,1.3042,1.3042,1.3042,1.3042,0,1.3261,1.3248,1.3231,1.322,1.3205,1.3193,1.3178,1.3167,1.3153,1.314,1.3131,1.3119,1.3103,1.3089,1.3078,1.3061,1.3057,1.305,1.3047,1.305,1.3051,1.3043,1.3044,1.3042,1.3042,1.3042,1.3042,0,1.3256,1.3244,1.3225,1.3207,1.3202,1.3191,1.3175,1.3164,1.3154,1.3138,1.3133,1.3117,1.31,1.3086,1.3063,1.3056,1.3038,1.3035,1.3044,1.3042,1.3036,1.3036,1.3018,1.3015,1.3024,1.3024,1.3024,0,1.3248,1.3238,1.3218,1.321,1.3201,1.3186,1.3176,1.3164,1.3154,1.3135,1.3127,1.3109,1.3095,1.3068,1.3053,1.3036,1.3032,1.3027,1.3029,1.3033,1.3032,1.3032,1.3031,1.3027,1.3027,1.3026,1.3026,0,1.3236,1.3231,1.3217,1.3201,1.319,1.3177,1.3163,1.3157,1.3142,1.3131,1.3114,1.3103,1.3081,1.3063,1.3045,1.3034,1.3028,1.3026,1.3024,1.3026,1.3031,1.3028,1.3042,1.3026,1.3026,1.3026,1.3026,1.3026,1.3228,1.3219,1.3204,1.3189,1.3178,1.3166,1.3156,1.3145,1.3131,1.3113,1.3106,1.3089,1.3073,1.3048,1.3037,1.3023,1.3023,1.3019,1.3018,1.3017,1.3017,1.3035,1.302,1.302,1.302,1.302,1.302,0,1.3215,1.3206,1.3192,1.3174,1.3163,1.3159,1.3145,1.3135,1.312,1.3106,1.3093,1.3074,1.3057,1.3042,1.3025,1.3017,1.3013,1.3013,1.3013,1.301,1.3019,1.3023,1.3016,1.3016,1.3016,1.3016,1.3016,1.3016,1.3207,1.319,1.3184,1.3162,1.3153,1.3136,1.3128,1.3117,1.3106,1.3086,1.3073,1.3064,1.3049,1.3031,1.3016,1.3012,1.3006,1.3006,1.3001,1.3009,1.301,1.301,1.3014,1.3005,1.3005,1.2993,1.2993,1.2993]},{"header":{"parameterUnit":"m.s-1","parameterCategory":1,"la1":30.2991,"la2":30.254,"lo1":-89.0895,"lo2":-89.0444,"dy":0.0017,"dx":0.0017,"nx":28,"ny":28,"refTime":"2025-12-29T09:00:00:Z","depth":0,"parameterNumber":3,"parameterNumberName":"V-component_of_WINDS"},"data":[0,0,0,0,0,0,0,0,0,0,0,0,0,0,0,0,0,0,0,0,0,0,0,0,0,0,0,0,0,0,0,0,0,0,0,0,0,0,0,0,0,0,0,0,0,0,0,0,0,0,0,0,0,0,0,0,0,0,-4.9412,-4.9414,0,-4.9604,-4.9607,-4.9609,-4.9567,-4.9563,-4.956,-4.9557,-4.975,-4.9758,-4.9767,0,0,0,0,0,0,0,0,0,0,0,0,0,-4.9005,-4.9012,-4.9412,-4.9415,-4.9417,-4.9604,-4.9607,-4.9609,-4.9568,-4.9563,-4.9559,-4.9555,-4.9747,-4.9757,-4.9767,0,0,0,0,0,0,0,0,0,0,0,0,0,-4.9188,-4.9015,-4.9412,-4.9419,-4.9421,-4.9604,-4.9607,-4.961,-4.9569,-4.9563,-4.9558,-4.9553,-4.9744,-4.9756,-4.9769,-4.9955,0,0,-4.9808,-4.9813,0,0,0,0,0,0,0,0,-4.9177,-4.9203,-4.9415,-4.9419,-4.9422,-4.9556,-4.9534,-4.9726,-4.957,-4.9513,-4.9556,-4.955,-4.969,-4.9707,-4.9754,-4.9964,-4.9972,-4.9809,-4.9817,-4.9822,-4.9826,0,0,0,0,0,0,0,-4.9165,-4.9194,-4.9488,-4.9418,-4.9422,-4.9411,-4.9431,-4.957,-4.9629,-4.9517,-4.9515,-4.9538,-4.969,-4.9742,-4.9758,-4.9975,-4.9808,-4.982,-4.9828,-4.9833,-5.0345,-5.0351,0,0,0,0,0,0,-4.915,-4.9184,-4.9482,-4.9494,-4.9284,-4.9423,-4.9445,-4.9519,-4.9627,-4.9639,-4.9543,-4.9535,-4.9723,-4.9744,-4.9765,-4.9989,-4.9822,-4.9834,-4.9841,-5.0339,-5.0346,-5.0353,0,0,0,0,0,0,-4.9141,-4.9177,-4.9474,-4.9338,-4.9375,-4.9435,-4.9518,-4.9525,-4.9577,-4.9646,-4.9656,-4.9585,-4.972,-4.9747,-4.9908,-4.9995,-4.984,-4.9851,-5.0332,-5.0341,-5.035,-5.044,0,0,0,0,0,0,-4.913,-4.9174,-4.9247,-4.934,-4.9383,-4.9616,-4.9524,-4.9533,-4.9599,-4.9592,-4.9689,-4.97,-4.9717,-4.9889,-4.9921,-5.001,-4.9861,-5.0325,-5.0336,-5.0347,-5.0429,-5.045,-5.0469,0,0,0,0,0,-4.9115,-4.9264,-4.925,-4.9287,-4.9475,-4.9621,-4.9645,-4.9663,-4.9607,-4.9679,-4.9723,-4.9697,-4.9981,-4.9906,-4.9941,-5.0036,-5.0319,-5.0333,-5.0346,-5.042,-5.0446,-5.0468,0,0,0,0,0,0,-4.9178,-4.9276,-4.9263,-4.9446,-4.9525,-4.9613,-4.9706,-4.9691,-4.9787,-4.9776,-4.9793,-4.9816,-4.9979,-5.0023,-4.9938,-5.022,-5.0142,-5.0163,-5.0186,-5.0211,-5.0231,-5.0217,-4.9872,0,0,0,0,0,-4.9213,-4.9325,-4.9404,-4.9558,-4.9599,-4.9645,-4.971,-4.9717,-4.9799,-4.9832,-4.9889,-4.9969,-5.0076,-5.0146,-5.0248,-5.0435,-5.0455,-5.0517,-5.0537,-5.0553,-5.0571,-5.0671,-5.07,-5.0397,-5.0397,-5.0397,0,0,-4.9287,-4.9354,-4.9424,-4.9572,-4.9635,-4.9748,-4.9674,-4.9798,-4.9881,-4.9851,-5.0006,-5.005,-5.014,-5.0314,-5.0394,-5.0356,-5.0659,-5.057,-5.0582,-5.0592,-5.0688,-5.0717,-5.0742,-5.0406,-5.0405,-5.0403,0,0,-4.948,-4.9542,-4.9677,-4.9741,-4.9837,-4.9867,-4.9899,-4.9989,-5.0017,-5.0174,-5.0153,-5.0252,-5.0437,-5.0501,-5.0558,-5.0774,-5.0752,-5.0807,-5.0911,-5.1008,-5.1032,-5.1053,-5.1129,-5.1156,-5.0824,-5.0825,-5.0825,0,-4.9559,-4.9731,-4.9748,-4.9874,-4.9939,-4.9917,-5.0053,-5.0114,-5.0237,-5.0282,-5.0238,-5.0469,-5.0528,-5.0716,-5.0769,-5.0816,-5.0852,-5.0796,-5.1027,-5.1049,-5.1069,-5.1141,-5.117,-5.083,-5.083,-5.0829,-5.0829,0,-4.9823,-4.9942,-5.0039,-5.016,-5.0236,-5.0366,-5.0402,-5.0477,-5.0477,-5.0511,-5.0669,-5.0739,-5.0855,-5.09,-5.0902,-5.1089,-5.1062,-5.1023,-5.0944,-5.1103,-5.1172,-5.12,-5.0839,-5.0837,-5.0835,-5.0834,0,0,-5.0061,-5.019,-5.0225,-5.0279,-5.0382,-5.0474,-5.0602,-5.0716,-5.0779,-5.0864,-5.0971,-5.1127,-5.1091,-5.1156,-5.1164,-5.125,-5.1415,-5.12,-5.1202,-5.1237,-5.1624,-5.1652,-5.1684,-5.1401,-5.1406,-5.1411,-5.1616,0,-5.0263,-5.049,-5.0509,-5.0713,-5.0822,-5.0802,-5.0913,-5.0988,-5.1022,-5.1119,-5.1156,-5.1267,-5.1211,-5.125,-5.1334,-5.1377,-5.1493,-5.1363,-5.1499,-5.1504,-5.1477,-5.172,-5.1752,-5.1942,-5.1643,-5.1647,-5.1651,0,-5.0529,-5.0623,-5.0838,-5.0924,-5.0971,-5.1071,-5.1176,-5.1269,-5.1352,-5.1371,-5.1443,-5.1439,-5.1569,-5.1485,-5.1663,-5.1574,-5.1631,-5.166,-5.1668,-5.1681,-5.1587,-5.1739,-5.2003,-5.2032,-5.1693,-5.169,-5.1687,0,-5.068,-5.086,-5.1012,-5.1059,-5.1164,-5.1234,-5.1281,-5.1359,-5.1426,-5.1517,-5.156,-5.1665,-5.1723,-5.1803,-5.1827,-5.1764,-5.2004,-5.1922,-5.2022,-5.2022,-5.2074,-5.207,-5.235,-5.2111,-5.2111,-5.211,-5.211,0,-5.0903,-5.1035,-5.1081,-5.1175,-5.1321,-5.1341,-5.1485,-5.1527,-5.1597,-5.1696,-5.1685,-5.1779,-5.1804,-5.1902,-5.1922,-5.2065,-5.2091,-5.2109,-5.2113,-5.2111,-5.2108,-5.2148,-5.2135,-5.2118,-5.2116,-5.2115,-5.2113,0,-5.1097,-5.1134,-5.1297,-5.1383,-5.1408,-5.1512,-5.1584,-5.1673,-5.1706,-5.1832,-5.1863,-5.1914,-5.2028,-5.206,-5.2197,-5.2209,-5.2378,-5.237,-5.2351,-5.2351,-5.2448,-5.2439,-5.2763,-5.2806,-5.254,-5.2542,-5.2544,0,-5.1237,-5.1338,-5.1435,-5.1501,-5.1551,-5.1659,-5.1727,-5.1749,-5.182,-5.1921,-5.1998,-5.2111,-5.2202,-5.2386,-5.2434,-5.2538,-5.2532,-5.2638,-5.2547,-5.2541,-5.2532,-5.2526,-5.2536,-5.2655,-5.2658,-5.266,-5.2662,0,-5.1481,-5.1494,-5.1593,-5.1699,-5.1781,-5.1865,-5.1945,-5.2,-5.2033,-5.2113,-5.2231,-5.2302,-5.2442,-5.2553,-5.2659,-5.2705,-5.2689,-5.269,-5.2719,-5.2717,-5.2702,-5.2711,-5.2397,-5.2683,-5.2681,-5.2679,-5.2678,-5.2677,-5.1652,-5.1741,-5.1822,-5.1933,-5.1996,-5.2071,-5.2158,-5.2202,-5.23,-5.2416,-5.2423,-5.255,-5.2628,-5.2768,-5.282,-5.2918,-5.2887,-5.2928,-5.2939,-5.2948,-5.2956,-5.2687,-5.2938,-5.2937,-5.2937,-5.2936,-5.2936,0,-5.1895,-5.1946,-5.2048,-5.2161,-5.2247,-5.2226,-5.2313,-5.2386,-5.2499,-5.2574,-5.2664,-5.2798,-5.2906,-5.2962,-5.3069,-5.3137,-5.3133,-5.3165,-5.316,-5.317,-5.2979,-5.2944,-5.3166,-5.3166,-5.3166,-5.3166,-5.3166,-5.3166,-5.2032,-5.218,-5.2202,-5.2381,-5.243,-5.2556,-5.2607,-5.2676,-5.2736,-5.2886,-5.2976,-5.3012,-5.3079,-5.3191,-5.3288,-5.3302,-5.3341,-5.3377,-5.3387,-5.3207,-5.3184,-5.3161,-5.3128,-5.3386,-5.3386,-5.357,-5.3571,-5.3573]}]]